Location: Cactus School
(34.5700°N, 118.0931°W)
Time: 13:02:34
(UTC-07:00)

A-11 Canister half - All Passes

Search period start: 12 April 2024 00:00
Search period end: 22 April 2024 00:00
Orbit: 1526 x 1682 km, 47.3° (Epoch: 11 April)

Date Brightness Start Highest point End Pass type
(mag) Time Alt. Az. Time Alt. Az. Time Alt. Az.
12 Apr - 06:14:35 10° S 06:22:30 27° SE 06:30:29 10° ENE daylight
12 Apr - 08:16:37 10° SW 08:26:44 89° SE 08:36:58 10° NE daylight
12 Apr - 10:23:13 10° W 10:32:51 46° NNW 10:42:28 10° NE daylight
12 Apr - 12:30:40 10° WNW 12:40:10 42° N 12:49:28 10° E daylight
12 Apr - 14:36:29 10° NW 14:46:37 77° NNE 14:56:24 10° ESE daylight
12 Apr - 16:42:26 10° WNW 16:51:08 36° SW 16:59:35 10° S daylight
13 Apr - 05:53:10 10° S 06:00:48 26° SE 06:08:31 10° ENE visible
13 Apr - 07:54:53 10° SW 08:04:57 85° SE 08:15:11 10° NE daylight
13 Apr - 10:01:19 10° W 10:10:59 47° NNW 10:20:39 10° NE daylight
13 Apr - 12:08:48 10° WNW 12:18:17 41° N 12:27:36 10° ENE daylight
13 Apr - 14:14:41 10° NW 14:24:49 74° NNE 14:34:37 10° ESE daylight
13 Apr - 16:20:33 10° WNW 16:29:25 38° SW 16:38:03 10° SSE daylight
14 Apr - 05:31:45 10° S 05:39:06 24° SE 05:46:32 10° ENE visible
14 Apr - 07:33:08 10° SW 07:43:10 82° SE 07:53:22 10° NE daylight
14 Apr - 09:39:26 10° W 09:49:07 48° NNW 09:58:50 10° NE daylight
14 Apr - 11:46:57 10° WNW 11:56:24 41° N 12:05:43 10° ENE daylight
14 Apr - 13:52:52 10° NW 14:03:01 72° NNE 14:12:50 10° ESE daylight
14 Apr - 15:58:39 10° WNW 16:07:43 41° SW 16:16:31 10° SSE daylight
15 Apr - 05:10:23 10° S 05:17:23 22° SE 05:24:29 10° E visible
15 Apr - 07:11:24 10° SW 07:21:24 79° SE 07:31:35 10° NE daylight
15 Apr - 09:17:32 10° W 09:27:15 49° NNW 09:37:01 10° NE daylight
15 Apr - 11:25:04 10° WNW 11:34:31 41° N 11:43:50 10° ENE daylight
15 Apr - 13:31:05 10° NW 13:41:13 69° NNE 13:51:02 10° ESE daylight
15 Apr - 15:36:48 10° WNW 15:46:00 43° SW 15:54:57 10° SSE daylight
16 Apr - 04:49:03 10° SSE 04:55:42 20° SE 05:02:26 10° E visible
16 Apr - 06:49:41 10° SW 06:59:38 75° SE 07:09:47 10° ENE daylight
16 Apr - 08:55:39 10° W 09:05:24 50° NNW 09:15:12 10° NE daylight
16 Apr - 11:03:12 10° WNW 11:12:38 40° N 11:21:57 10° ENE daylight
16 Apr - 13:09:16 10° NW 13:19:24 67° NNE 13:29:13 10° ESE daylight
16 Apr - 15:14:55 10° WNW 15:24:17 46° SW 15:33:21 10° SSE daylight
17 Apr - 04:27:46 10° SSE 04:34:01 19° ESE 04:40:19 10° E visible
17 Apr - 06:27:58 10° SW 06:37:52 72° SE 06:47:58 10° ENE daylight
17 Apr - 08:33:46 10° W 08:43:32 51° NNW 08:53:23 10° NE daylight
17 Apr - 10:41:20 10° WNW 10:50:45 40° N 11:00:05 10° ENE daylight
17 Apr - 12:47:28 10° NW 12:57:34 64° NNE 13:07:25 10° ESE daylight
17 Apr - 14:53:04 10° WNW 15:02:33 49° SW 15:11:46 10° SSE daylight
18 Apr - 04:06:32 10° SSE 04:12:19 17° ESE 04:18:10 10° E visible
18 Apr - 06:06:17 10° SW 06:16:06 69° SE 06:26:10 10° ENE daylight
18 Apr - 08:11:54 10° W 08:21:41 53° NNW 08:31:35 10° NE daylight
18 Apr - 10:19:28 10° WNW 10:28:51 40° N 10:38:11 10° ENE daylight
18 Apr - 12:25:40 10° NW 12:35:45 62° NNE 12:45:35 10° ESE daylight
18 Apr - 14:31:14 10° WNW 14:40:50 51° SW 14:50:09 10° SSE daylight
19 Apr - 03:45:24 10° SSE 03:50:39 16° ESE 03:55:57 10° E visible
19 Apr - 05:44:35 10° SW 05:54:20 65° SE 06:04:20 10° ENE visible
19 Apr - 07:50:02 10° W 07:59:50 54° NNW 08:09:47 10° NE daylight
19 Apr - 09:57:36 10° WNW 10:06:58 40° N 10:16:19 10° ENE daylight
19 Apr - 12:03:52 10° NW 12:13:55 60° NNE 12:23:45 10° ESE daylight
19 Apr - 14:09:23 10° WNW 14:19:05 54° SW 14:28:31 10° SSE daylight
19 Apr - 16:20:17 10° WSW 16:22:33 11° WSW 16:24:49 10° SW daylight
20 Apr - 03:24:19 10° SSE 03:28:58 14° ESE 03:33:39 10° E visible
20 Apr - 05:22:55 10° SSW 05:32:35 62° SE 05:42:31 10° ENE visible
20 Apr - 07:28:10 10° W 07:38:00 56° NNW 07:47:58 10° NE daylight
20 Apr - 09:35:42 10° WNW 09:45:05 40° N 09:54:26 10° ENE daylight
20 Apr - 11:42:03 10° NW 11:52:05 58° NNE 12:01:55 10° ESE daylight
20 Apr - 13:47:32 10° WNW 13:57:21 57° SW 14:06:54 10° SSE daylight
20 Apr - 15:57:23 10° W 16:00:52 12° WSW 16:04:21 10° SW daylight
21 Apr - 03:03:24 10° SE 03:07:17 13° ESE 03:11:12 10° E visible
21 Apr - 05:01:16 10° SSW 05:10:50 59° SE 05:20:41 10° ENE visible
21 Apr - 07:06:20 10° WSW 07:16:09 58° NNW 07:26:10 10° NE daylight
21 Apr - 09:13:49 10° WNW 09:23:11 40° N 09:32:32 10° ENE daylight
21 Apr - 11:20:15 10° NW 11:30:15 57° NNE 11:40:04 10° ESE daylight
21 Apr - 13:25:43 10° WNW 13:35:36 61° SW 13:45:14 10° SSE daylight
21 Apr - 15:34:51 10° W 15:39:12 14° WSW 15:43:30 10° SSW daylight
